Year,Month,Day,Hour,Minute,Value (Times are PST for temperature in C)
2008,06,14,00,00,12.50
2008,06,14,00,01,12.50
2008,06,14,00,02,12.50
2008,06,14,00,03,12.50
2008,06,14,00,04,12.50
2008,06,14,00,05,12.50
2008,06,14,00,06,12.50
2008,06,14,00,07,12.50
2008,06,14,00,08,12.40
2008,06,14,00,09,12.40
2008,06,14,00,10,12.40
2008,06,14,00,11,12.40
2008,06,14,00,12,12.40
2008,06,14,00,13,12.40
2008,06,14,00,14,12.40
2008,06,14,00,15,12.40
2008,06,14,00,16,12.40
2008,06,14,00,17,12.40
2008,06,14,00,18,12.40
2008,06,14,00,19,12.40
2008,06,14,00,20,12.30
2008,06,14,00,21,12.30
2008,06,14,00,22,12.30
2008,06,14,00,23,12.30
2008,06,14,00,24,12.30
2008,06,14,00,25,12.30
2008,06,14,00,26,12.30
2008,06,14,00,27,12.30
2008,06,14,00,28,12.30
2008,06,14,00,29,12.30
2008,06,14,00,30,12.20
2008,06,14,00,31,12.20
2008,06,14,00,32,12.20
2008,06,14,00,33,12.20
2008,06,14,00,34,12.20
2008,06,14,00,35,12.20
2008,06,14,00,36,12.20
2008,06,14,00,37,12.20
2008,06,14,00,38,12.20
2008,06,14,00,39,12.10
2008,06,14,00,40,12.10
2008,06,14,00,41,12.10
2008,06,14,00,42,12.10
2008,06,14,00,43,12.10
2008,06,14,00,44,12.10
2008,06,14,00,45,12.10
2008,06,14,00,46,12.10
2008,06,14,00,47,12.10
2008,06,14,00,48,12.00
2008,06,14,00,49,12.00
2008,06,14,00,50,12.00
2008,06,14,00,51,12.00
2008,06,14,00,52,12.00
2008,06,14,00,53,12.00
2008,06,14,00,54,12.00
2008,06,14,00,55,12.00
2008,06,14,00,56,11.90
2008,06,14,00,57,11.90
2008,06,14,00,58,11.90
2008,06,14,00,59,11.90
2008,06,14,01,00,11.90
2008,06,14,01,01,11.90
2008,06,14,01,02,11.90
2008,06,14,01,03,11.90
2008,06,14,01,04,11.90
2008,06,14,01,05,11.90
2008,06,14,01,06,11.90
2008,06,14,01,07,11.90
2008,06,14,01,08,11.80
2008,06,14,01,09,11.80
2008,06,14,01,10,11.80
2008,06,14,01,11,11.80
2008,06,14,01,12,11.80
2008,06,14,01,13,11.80
2008,06,14,01,14,11.80
2008,06,14,01,15,11.80
2008,06,14,01,16,11.70
2008,06,14,01,17,11.70
2008,06,14,01,18,11.70
2008,06,14,01,19,11.70
2008,06,14,01,20,11.70
2008,06,14,01,21,11.70
2008,06,14,01,22,11.60
2008,06,14,01,23,11.60
2008,06,14,01,24,11.60
2008,06,14,01,25,11.60
2008,06,14,01,26,11.60
2008,06,14,01,27,11.60
2008,06,14,01,28,11.60
2008,06,14,01,29,11.60
2008,06,14,01,30,11.60
2008,06,14,01,31,11.60
2008,06,14,01,32,11.60
2008,06,14,01,33,11.60
2008,06,14,01,34,11.50
2008,06,14,01,35,11.50
2008,06,14,01,36,11.50
2008,06,14,01,37,11.50
2008,06,14,01,38,11.50
2008,06,14,01,39,11.50
2008,06,14,01,40,11.40
2008,06,14,01,41,11.40
2008,06,14,01,42,11.40
2008,06,14,01,43,11.40
2008,06,14,01,44,11.40
2008,06,14,01,45,11.40
2008,06,14,01,46,11.40
2008,06,14,01,47,11.40
2008,06,14,01,48,11.40
2008,06,14,01,49,11.40
2008,06,14,01,50,11.30
2008,06,14,01,51,11.30
2008,06,14,01,52,11.30
2008,06,14,01,53,11.30
2008,06,14,01,54,11.30
2008,06,14,01,55,11.30
2008,06,14,01,56,11.30
2008,06,14,01,57,11.30
2008,06,14,01,58,11.30
2008,06,14,01,59,11.20
2008,06,14,02,00,11.20
2008,06,14,02,01,11.20
2008,06,14,02,02,11.20
2008,06,14,02,03,11.20
2008,06,14,02,04,11.20
2008,06,14,02,05,11.20
2008,06,14,02,06,11.10
2008,06,14,02,07,11.10
2008,06,14,02,08,11.10
2008,06,14,02,09,11.10
2008,06,14,02,10,11.10
2008,06,14,02,11,11.10
2008,06,14,02,12,11.10
2008,06,14,02,13,11.10
2008,06,14,02,14,11.00
2008,06,14,02,15,11.00
2008,06,14,02,16,11.00
2008,06,14,02,17,11.00
2008,06,14,02,18,11.00
2008,06,14,02,19,11.00
2008,06,14,02,20,11.00
2008,06,14,02,21,10.90
2008,06,14,02,22,10.90
2008,06,14,02,23,10.90
2008,06,14,02,24,10.90
2008,06,14,02,25,10.90
2008,06,14,02,26,10.90
2008,06,14,02,27,10.80
2008,06,14,02,28,10.80
2008,06,14,02,29,10.80
2008,06,14,02,30,10.80
2008,06,14,02,31,10.80
2008,06,14,02,32,10.80
2008,06,14,02,33,10.80
2008,06,14,02,34,10.80
2008,06,14,02,35,10.80
2008,06,14,02,36,10.80
2008,06,14,02,37,10.80
2008,06,14,02,38,10.80
2008,06,14,02,39,10.70
2008,06,14,02,40,10.70
2008,06,14,02,41,10.70
2008,06,14,02,42,10.70
2008,06,14,02,43,10.70
2008,06,14,02,44,10.70
2008,06,14,02,45,10.70
2008,06,14,02,46,10.70
2008,06,14,02,47,10.70
2008,06,14,02,48,10.70
2008,06,14,02,49,10.70
2008,06,14,02,50,10.60
2008,06,14,02,51,10.60
2008,06,14,02,52,10.60
2008,06,14,02,53,10.70
2008,06,14,02,54,10.60
2008,06,14,02,55,10.60
2008,06,14,02,56,10.70
2008,06,14,02,57,10.70
2008,06,14,02,58,10.70
2008,06,14,02,59,10.60
2008,06,14,03,00,10.60
2008,06,14,03,01,10.60
2008,06,14,03,02,10.60
2008,06,14,03,03,10.60
2008,06,14,03,04,10.60
2008,06,14,03,05,10.60
2008,06,14,03,06,10.60
2008,06,14,03,07,10.60
2008,06,14,03,08,10.60
2008,06,14,03,09,10.50
2008,06,14,03,10,10.50
2008,06,14,03,11,10.50
2008,06,14,03,12,10.50
2008,06,14,03,13,10.50
2008,06,14,03,14,10.50
2008,06,14,03,15,10.50
2008,06,14,03,16,10.50
2008,06,14,03,17,10.50
2008,06,14,03,18,10.50
2008,06,14,03,19,10.50
2008,06,14,03,20,10.50
2008,06,14,03,21,10.50
2008,06,14,03,22,10.50
2008,06,14,03,23,10.50
2008,06,14,03,24,10.50
2008,06,14,03,25,10.50
2008,06,14,03,26,10.50
2008,06,14,03,27,10.50
2008,06,14,03,28,10.50
2008,06,14,03,29,10.50
2008,06,14,03,30,10.50
2008,06,14,03,31,10.60
2008,06,14,03,32,10.50
2008,06,14,03,33,10.60
2008,06,14,03,34,10.60
2008,06,14,03,35,10.60
2008,06,14,03,36,10.60
2008,06,14,03,37,10.60
2008,06,14,03,38,10.60
2008,06,14,03,39,10.60
2008,06,14,03,40,10.60
2008,06,14,03,41,10.60
2008,06,14,03,42,10.60
2008,06,14,03,43,10.60
2008,06,14,03,44,10.60
2008,06,14,03,45,10.60
2008,06,14,03,46,10.60
2008,06,14,03,47,10.60
2008,06,14,03,48,10.60
2008,06,14,03,49,10.60
2008,06,14,03,50,10.60
2008,06,14,03,51,10.60
2008,06,14,03,52,10.60
2008,06,14,03,53,10.60
2008,06,14,03,54,10.60
2008,06,14,03,55,10.60
2008,06,14,03,56,10.60
2008,06,14,03,57,10.60
2008,06,14,03,58,10.60
2008,06,14,03,59,10.60
2008,06,14,04,00,10.60
2008,06,14,04,01,10.60
2008,06,14,04,02,10.60
2008,06,14,04,03,10.60
2008,06,14,04,04,10.60
2008,06,14,04,05,10.60
2008,06,14,04,06,10.60
2008,06,14,04,07,10.60
2008,06,14,04,08,10.60
2008,06,14,04,09,10.60
2008,06,14,04,10,10.60
2008,06,14,04,11,10.60
2008,06,14,04,12,10.60
2008,06,14,04,13,10.60
2008,06,14,04,14,10.60
2008,06,14,04,15,10.60
2008,06,14,04,16,10.60
2008,06,14,04,17,10.60
2008,06,14,04,18,10.50
2008,06,14,04,19,10.60
2008,06,14,04,20,10.60
2008,06,14,04,21,10.60
2008,06,14,04,22,10.60
2008,06,14,04,23,10.60
2008,06,14,04,24,10.60
2008,06,14,04,25,10.50
2008,06,14,04,26,10.60
2008,06,14,04,27,10.50
2008,06,14,04,28,10.50
2008,06,14,04,29,10.50
2008,06,14,04,30,10.50
2008,06,14,04,31,10.50
2008,06,14,04,32,10.50
2008,06,14,04,33,10.50
2008,06,14,04,34,10.50
2008,06,14,04,35,10.50
2008,06,14,04,36,10.50
2008,06,14,04,37,10.50
2008,06,14,04,38,10.50
2008,06,14,04,39,10.50
2008,06,14,04,40,10.50
2008,06,14,04,41,10.50
2008,06,14,04,42,10.50
2008,06,14,04,43,10.50
2008,06,14,04,44,10.50
2008,06,14,04,45,10.50
2008,06,14,04,46,10.50
2008,06,14,04,47,10.50
2008,06,14,04,48,10.50
2008,06,14,04,49,10.50
2008,06,14,04,50,10.50
2008,06,14,04,51,10.50
2008,06,14,04,52,10.50
2008,06,14,04,53,10.50
2008,06,14,04,54,10.50
2008,06,14,04,55,10.50
2008,06,14,04,56,10.50
2008,06,14,04,57,10.60
2008,06,14,04,58,10.60
2008,06,14,04,59,10.60
2008,06,14,05,00,10.60
2008,06,14,05,01,10.60
2008,06,14,05,02,10.60
2008,06,14,05,03,10.60
2008,06,14,05,04,10.60
2008,06,14,05,05,10.60
2008,06,14,05,06,10.60
2008,06,14,05,07,10.60
2008,06,14,05,08,10.60
2008,06,14,05,09,10.60
2008,06,14,05,10,10.50
2008,06,14,05,11,10.50
2008,06,14,05,12,10.50
2008,06,14,05,13,10.50
2008,06,14,05,14,10.50
2008,06,14,05,15,10.50
2008,06,14,05,16,10.50
2008,06,14,05,17,10.50
2008,06,14,05,18,10.40
2008,06,14,05,19,10.40
2008,06,14,05,20,10.40
2008,06,14,05,21,10.40
2008,06,14,05,22,10.40
2008,06,14,05,23,10.40
2008,06,14,05,24,10.40
2008,06,14,05,25,10.40
2008,06,14,05,26,10.40
2008,06,14,05,27,10.40
2008,06,14,05,28,10.40
2008,06,14,05,29,10.40
2008,06,14,05,30,10.40
2008,06,14,05,31,10.40
2008,06,14,05,32,10.40
2008,06,14,05,33,10.40
2008,06,14,05,34,10.40
2008,06,14,05,35,10.40
2008,06,14,05,36,10.40
2008,06,14,05,37,10.40
2008,06,14,05,38,10.40
2008,06,14,05,39,10.40
2008,06,14,05,40,10.40
2008,06,14,05,41,10.40
2008,06,14,05,42,10.30
2008,06,14,05,43,10.30
2008,06,14,05,44,10.30
2008,06,14,05,45,10.30
2008,06,14,05,46,10.30
2008,06,14,05,47,10.30
2008,06,14,05,48,10.30
2008,06,14,05,49,10.30
2008,06,14,05,50,10.30
2008,06,14,05,51,10.30
2008,06,14,05,52,10.30
2008,06,14,05,53,10.30
2008,06,14,05,54,10.30
2008,06,14,05,55,10.30
2008,06,14,05,56,10.30
2008,06,14,05,57,10.30
2008,06,14,05,58,10.30
2008,06,14,05,59,10.30
2008,06,14,06,00,10.30
2008,06,14,06,01,10.30
2008,06,14,06,02,10.30
2008,06,14,06,03,10.30
2008,06,14,06,04,10.30
2008,06,14,06,05,10.30
2008,06,14,06,06,10.30
2008,06,14,06,07,10.30
2008,06,14,06,08,10.30
2008,06,14,06,09,10.30
2008,06,14,06,10,10.30
2008,06,14,06,11,10.30
2008,06,14,06,12,10.30
2008,06,14,06,13,10.30
2008,06,14,06,14,10.30
2008,06,14,06,15,10.40
2008,06,14,06,16,10.40
2008,06,14,06,17,10.40
2008,06,14,06,18,10.40
2008,06,14,06,19,10.40
2008,06,14,06,20,10.40
2008,06,14,06,21,10.40
2008,06,14,06,22,10.50
2008,06,14,06,23,10.50
2008,06,14,06,24,10.50
2008,06,14,06,25,10.50
2008,06,14,06,26,10.50
2008,06,14,06,27,10.50
2008,06,14,06,28,10.60
2008,06,14,06,29,10.60
2008,06,14,06,30,10.60
2008,06,14,06,31,10.60
2008,06,14,06,32,10.60
2008,06,14,06,33,10.60
2008,06,14,06,34,10.60
2008,06,14,06,35,10.60
2008,06,14,06,36,10.60
2008,06,14,06,37,10.60
2008,06,14,06,38,10.60
2008,06,14,06,39,10.60
2008,06,14,06,40,10.60
2008,06,14,06,41,10.70
2008,06,14,06,42,10.70
2008,06,14,06,43,10.70
2008,06,14,06,44,10.70
2008,06,14,06,45,10.70
2008,06,14,06,46,10.70
2008,06,14,06,47,10.70
2008,06,14,06,48,10.70
2008,06,14,06,49,10.70
2008,06,14,06,50,10.70
2008,06,14,06,51,10.70
2008,06,14,06,52,10.70
2008,06,14,06,53,10.70
2008,06,14,06,54,10.70
2008,06,14,06,55,10.70
2008,06,14,06,56,10.70
2008,06,14,06,57,10.70
2008,06,14,06,58,10.70
2008,06,14,06,59,10.70
2008,06,14,07,00,10.70
2008,06,14,07,01,10.70
2008,06,14,07,02,10.70
2008,06,14,07,03,10.70
2008,06,14,07,04,10.70
2008,06,14,07,05,10.70
2008,06,14,07,06,10.70
2008,06,14,07,07,10.70
2008,06,14,07,08,10.70
2008,06,14,07,09,10.70
2008,06,14,07,10,10.70
2008,06,14,07,11,10.70
2008,06,14,07,12,10.70
2008,06,14,07,13,10.70
2008,06,14,07,14,10.70
2008,06,14,07,15,10.70
2008,06,14,07,16,10.70
2008,06,14,07,17,10.80
2008,06,14,07,18,10.80
2008,06,14,07,19,10.80
2008,06,14,07,20,10.70
2008,06,14,07,21,10.70
2008,06,14,07,22,10.70
2008,06,14,07,23,10.70
2008,06,14,07,24,10.70
2008,06,14,07,25,10.70
2008,06,14,07,26,10.70
2008,06,14,07,27,10.70
2008,06,14,07,28,10.70
2008,06,14,07,29,10.70
2008,06,14,07,30,10.70
2008,06,14,07,31,10.80
2008,06,14,07,32,10.80
2008,06,14,07,33,10.80
2008,06,14,07,34,10.80
2008,06,14,07,35,10.80
2008,06,14,07,36,10.80
2008,06,14,07,37,10.80
2008,06,14,07,38,10.80
2008,06,14,07,39,10.80
2008,06,14,07,40,10.80
2008,06,14,07,41,10.80
2008,06,14,07,42,10.80
2008,06,14,07,43,10.80
2008,06,14,07,44,10.80
2008,06,14,07,45,10.80
2008,06,14,07,46,10.80
2008,06,14,07,47,10.80
2008,06,14,07,48,10.80
2008,06,14,07,49,10.80
2008,06,14,07,50,10.80
2008,06,14,07,51,10.80
2008,06,14,07,52,10.80
2008,06,14,07,53,10.80
2008,06,14,07,54,10.80
2008,06,14,07,55,10.80
2008,06,14,07,56,10.80
2008,06,14,07,57,10.80
2008,06,14,07,58,10.80
2008,06,14,07,59,10.80
2008,06,14,08,00,10.80
2008,06,14,08,01,10.90
2008,06,14,08,02,10.90
2008,06,14,08,03,10.90
2008,06,14,08,04,10.90
2008,06,14,08,05,10.90
2008,06,14,08,06,10.90
2008,06,14,08,07,10.90
2008,06,14,08,08,10.90
2008,06,14,08,09,11.00
2008,06,14,08,10,11.00
2008,06,14,08,11,11.00
2008,06,14,08,12,11.00
2008,06,14,08,13,11.10
2008,06,14,08,14,11.10
2008,06,14,08,15,11.10
2008,06,14,08,16,11.10
2008,06,14,08,17,11.10
2008,06,14,08,18,11.10
2008,06,14,08,19,11.10
2008,06,14,08,20,11.10
2008,06,14,08,21,11.10
2008,06,14,08,22,11.10
2008,06,14,08,23,11.10
2008,06,14,08,24,11.10
2008,06,14,08,25,11.20
2008,06,14,08,26,11.20
2008,06,14,08,27,11.20
2008,06,14,08,28,11.20
2008,06,14,08,29,11.20
2008,06,14,08,30,11.20
2008,06,14,08,31,11.20
2008,06,14,08,32,11.20
2008,06,14,08,33,11.20
2008,06,14,08,34,11.20
2008,06,14,08,35,11.20
2008,06,14,08,36,11.20
2008,06,14,08,37,11.20
2008,06,14,08,38,11.30
2008,06,14,08,39,11.30
2008,06,14,08,40,11.30
2008,06,14,08,41,11.30
2008,06,14,08,42,11.30
2008,06,14,08,43,11.30
2008,06,14,08,44,11.30
2008,06,14,08,45,11.40
2008,06,14,08,46,11.40
2008,06,14,08,47,11.40
2008,06,14,08,48,11.40
2008,06,14,08,49,11.40
2008,06,14,08,50,11.40
2008,06,14,08,51,11.40
2008,06,14,08,52,11.40
2008,06,14,08,53,11.40
2008,06,14,08,54,11.40
2008,06,14,08,55,11.40
2008,06,14,08,56,11.40
2008,06,14,08,57,11.50
2008,06,14,08,58,11.50
2008,06,14,08,59,11.50
2008,06,14,09,00,11.60
2008,06,14,09,01,11.60
2008,06,14,09,02,11.60
2008,06,14,09,03,11.60
2008,06,14,09,04,11.60
2008,06,14,09,05,11.70
2008,06,14,09,06,11.70
2008,06,14,09,07,11.70
2008,06,14,09,08,11.70
2008,06,14,09,09,11.70
2008,06,14,09,10,11.70
2008,06,14,09,11,11.70
2008,06,14,09,12,11.70
2008,06,14,09,13,11.70
2008,06,14,09,14,11.70
2008,06,14,09,15,11.70
2008,06,14,09,16,11.70
2008,06,14,09,17,11.70
2008,06,14,09,18,11.70
2008,06,14,09,19,11.70
2008,06,14,09,20,11.70
2008,06,14,09,21,11.70
2008,06,14,09,22,11.70
2008,06,14,09,23,11.70
2008,06,14,09,24,11.70
2008,06,14,09,25,11.70
2008,06,14,09,26,11.70
2008,06,14,09,27,11.80
2008,06,14,09,28,11.80
2008,06,14,09,29,11.80
2008,06,14,09,30,11.80
2008,06,14,09,31,11.80
2008,06,14,09,32,11.80
2008,06,14,09,33,11.90
2008,06,14,09,34,11.90
2008,06,14,09,35,11.90
2008,06,14,09,36,11.90
2008,06,14,09,37,11.90
2008,06,14,09,38,11.90
2008,06,14,09,39,11.90
2008,06,14,09,40,11.90
2008,06,14,09,41,11.90
2008,06,14,09,42,11.90
2008,06,14,09,43,11.90
2008,06,14,09,44,11.90
2008,06,14,09,45,11.90
2008,06,14,09,46,12.00
2008,06,14,09,47,12.00
2008,06,14,09,48,12.00
2008,06,14,09,49,12.00
2008,06,14,09,50,12.00
2008,06,14,09,51,12.00
2008,06,14,09,52,12.10
2008,06,14,09,53,12.10
2008,06,14,09,54,12.10
2008,06,14,09,55,12.10
2008,06,14,09,56,12.10
2008,06,14,09,57,12.10
2008,06,14,09,58,12.10
2008,06,14,09,59,12.10
2008,06,14,10,00,12.10
2008,06,14,10,01,12.20
2008,06,14,10,02,12.20
2008,06,14,10,03,12.20
2008,06,14,10,04,12.20
2008,06,14,10,05,12.20
2008,06,14,10,06,12.20
2008,06,14,10,07,12.20
2008,06,14,10,08,12.20
2008,06,14,10,09,12.20
2008,06,14,10,10,12.20
2008,06,14,10,11,12.20
2008,06,14,10,12,12.20
2008,06,14,10,13,12.20
2008,06,14,10,14,12.30
2008,06,14,10,15,12.30
2008,06,14,10,16,12.30
2008,06,14,10,17,12.40
2008,06,14,10,18,12.40
2008,06,14,10,19,12.50
2008,06,14,10,20,12.50
2008,06,14,10,21,12.60
2008,06,14,10,22,12.60
2008,06,14,10,23,12.70
2008,06,14,10,24,12.70
2008,06,14,10,25,12.70
2008,06,14,10,26,12.70
2008,06,14,10,27,12.80
2008,06,14,10,28,12.80
2008,06,14,10,29,12.70
2008,06,14,10,30,12.80
2008,06,14,10,31,12.80
2008,06,14,10,32,12.80
2008,06,14,10,33,12.80
2008,06,14,10,34,12.90
2008,06,14,10,35,13.00
2008,06,14,10,36,13.00
2008,06,14,10,37,13.10
2008,06,14,10,38,13.10
2008,06,14,10,39,13.10
2008,06,14,10,40,13.10
2008,06,14,10,41,13.10
2008,06,14,10,42,13.10
2008,06,14,10,43,13.10
2008,06,14,10,44,13.10
2008,06,14,10,45,13.10
2008,06,14,10,46,13.10
2008,06,14,10,47,13.10
2008,06,14,10,48,13.10
2008,06,14,10,49,13.10
2008,06,14,10,50,13.10
2008,06,14,10,51,13.10
2008,06,14,10,52,13.10
2008,06,14,10,53,13.10
2008,06,14,10,54,13.20
2008,06,14,10,55,13.20
2008,06,14,10,56,13.30
2008,06,14,10,57,13.40
2008,06,14,10,58,13.40
2008,06,14,10,59,13.50
2008,06,14,11,00,13.60
2008,06,14,11,01,13.70
2008,06,14,11,02,13.80
2008,06,14,11,03,13.80
2008,06,14,11,04,13.90
2008,06,14,11,05,14.00
2008,06,14,11,06,14.10
2008,06,14,11,07,14.10
2008,06,14,11,08,14.20
2008,06,14,11,09,14.30
2008,06,14,11,10,14.50
2008,06,14,11,11,14.60
2008,06,14,11,12,14.60
2008,06,14,11,13,14.60
2008,06,14,11,14,14.60
2008,06,14,11,15,14.50
2008,06,14,11,16,14.40
2008,06,14,11,17,14.40
2008,06,14,11,18,14.50
2008,06,14,11,19,14.70
2008,06,14,11,20,14.80
2008,06,14,11,21,14.90
2008,06,14,11,22,15.00
2008,06,14,11,23,15.00
2008,06,14,11,24,15.00
2008,06,14,11,25,15.00
2008,06,14,11,26,15.00
2008,06,14,11,27,15.00
2008,06,14,11,28,14.90
2008,06,14,11,29,14.80
2008,06,14,11,30,14.90
2008,06,14,11,31,15.00
2008,06,14,11,32,15.00
2008,06,14,11,33,15.00
2008,06,14,11,34,15.00
2008,06,14,11,35,15.00
2008,06,14,11,36,15.00
2008,06,14,11,37,15.00
2008,06,14,11,38,15.00
2008,06,14,11,39,15.00
2008,06,14,11,40,15.00
2008,06,14,11,41,15.00
2008,06,14,11,42,15.10
2008,06,14,11,43,15.10
2008,06,14,11,44,15.20
2008,06,14,11,45,15.30
2008,06,14,11,46,15.30
2008,06,14,11,47,15.30
2008,06,14,11,48,15.30
2008,06,14,11,49,15.30
2008,06,14,11,50,15.30
2008,06,14,11,51,15.30
2008,06,14,11,52,15.20
2008,06,14,11,53,15.00
2008,06,14,11,54,15.10
2008,06,14,11,55,15.10
2008,06,14,11,56,15.30
2008,06,14,11,57,15.40
2008,06,14,11,58,15.50
2008,06,14,11,59,15.60
2008,06,14,12,00,15.60
2008,06,14,12,01,15.70
2008,06,14,12,02,15.70
2008,06,14,12,03,15.80
2008,06,14,12,04,15.80
2008,06,14,12,05,15.80
2008,06,14,12,06,15.70
2008,06,14,12,07,15.70
2008,06,14,12,08,15.70
2008,06,14,12,09,15.70
2008,06,14,12,10,15.80
2008,06,14,12,11,15.80
2008,06,14,12,12,15.80
2008,06,14,12,13,15.90
2008,06,14,12,14,15.90
2008,06,14,12,15,15.90
2008,06,14,12,16,16.00
2008,06,14,12,17,16.10
2008,06,14,12,18,16.10
2008,06,14,12,19,16.10
2008,06,14,12,20,16.20
2008,06,14,12,21,16.20
2008,06,14,12,22,16.20
2008,06,14,12,23,16.20
2008,06,14,12,24,16.10
2008,06,14,12,25,16.10
2008,06,14,12,26,16.10
2008,06,14,12,27,16.00
2008,06,14,12,28,15.90
2008,06,14,12,29,15.80
2008,06,14,12,30,15.80
2008,06,14,12,31,15.90
2008,06,14,12,32,16.00
2008,06,14,12,33,16.00
2008,06,14,12,34,16.00
2008,06,14,12,35,16.00
2008,06,14,12,36,16.10
2008,06,14,12,37,16.10
2008,06,14,12,38,16.20
2008,06,14,12,39,16.10
2008,06,14,12,40,16.20
2008,06,14,12,41,16.20
2008,06,14,12,42,16.30
2008,06,14,12,43,16.30
2008,06,14,12,44,16.30
2008,06,14,12,45,16.40
2008,06,14,12,46,16.40
2008,06,14,12,47,16.10
2008,06,14,12,48,16.00
2008,06,14,12,49,16.00
2008,06,14,12,50,16.00
2008,06,14,12,51,16.10
2008,06,14,12,52,16.10
2008,06,14,12,53,16.10
2008,06,14,12,54,16.20
2008,06,14,12,55,16.20
2008,06,14,12,56,16.30
2008,06,14,12,57,16.40
2008,06,14,12,58,16.50
2008,06,14,12,59,16.60
2008,06,14,13,00,16.70
2008,06,14,13,01,16.80
2008,06,14,13,02,16.70
2008,06,14,13,03,16.60
2008,06,14,13,04,16.50
2008,06,14,13,05,16.40
2008,06,14,13,06,16.40
2008,06,14,13,07,16.30
2008,06,14,13,08,16.30
2008,06,14,13,09,16.30
2008,06,14,13,10,16.30
2008,06,14,13,11,16.20
2008,06,14,13,12,16.20
2008,06,14,13,13,16.20
2008,06,14,13,14,16.20
2008,06,14,13,15,16.20
2008,06,14,13,16,16.20
2008,06,14,13,17,16.20
2008,06,14,13,18,16.20
2008,06,14,13,19,16.20
2008,06,14,13,20,16.00
2008,06,14,13,21,15.90
2008,06,14,13,22,15.90
2008,06,14,13,23,15.80
2008,06,14,13,24,15.90
2008,06,14,13,25,15.90
2008,06,14,13,26,16.00
2008,06,14,13,27,16.10
2008,06,14,13,28,16.20
2008,06,14,13,29,16.30
2008,06,14,13,30,16.30
2008,06,14,13,31,16.40
2008,06,14,13,32,16.50
2008,06,14,13,33,16.60
2008,06,14,13,34,16.70
2008,06,14,13,35,16.80
2008,06,14,13,36,16.90
2008,06,14,13,37,17.00
2008,06,14,13,38,16.90
2008,06,14,13,39,16.80
2008,06,14,13,40,16.60
2008,06,14,13,41,16.50
2008,06,14,13,42,16.20
2008,06,14,13,43,16.10
2008,06,14,13,44,16.00
2008,06,14,13,45,15.90
2008,06,14,13,46,15.80
2008,06,14,13,47,15.70
2008,06,14,13,48,15.70
2008,06,14,13,49,15.60
2008,06,14,13,50,15.40
2008,06,14,13,51,15.40
2008,06,14,13,52,15.30
2008,06,14,13,53,15.30
2008,06,14,13,54,15.30
2008,06,14,13,55,15.40
2008,06,14,13,56,15.40
2008,06,14,13,57,15.50
2008,06,14,13,58,15.50
2008,06,14,13,59,15.40
2008,06,14,14,00,15.50
2008,06,14,14,01,15.40
2008,06,14,14,02,15.40
2008,06,14,14,03,15.30
2008,06,14,14,04,15.30
2008,06,14,14,05,15.30
2008,06,14,14,06,15.30
2008,06,14,14,07,15.30
2008,06,14,14,08,15.30
2008,06,14,14,09,15.30
2008,06,14,14,10,15.20
2008,06,14,14,11,15.10
2008,06,14,14,12,15.10
2008,06,14,14,13,15.10
2008,06,14,14,14,15.20
2008,06,14,14,15,15.20
2008,06,14,14,16,15.30
2008,06,14,14,17,15.30
2008,06,14,14,18,15.30
2008,06,14,14,19,15.40
2008,06,14,14,20,15.40
2008,06,14,14,21,15.40
2008,06,14,14,22,15.50
2008,06,14,14,23,15.50
2008,06,14,14,24,15.50
2008,06,14,14,25,15.50
2008,06,14,14,26,15.50
2008,06,14,14,27,15.40
2008,06,14,14,28,15.40
2008,06,14,14,29,15.40
2008,06,14,14,30,15.40
2008,06,14,14,31,15.40
2008,06,14,14,32,15.30
2008,06,14,14,33,15.30
2008,06,14,14,34,15.30
2008,06,14,14,35,15.20
2008,06,14,14,36,15.20
2008,06,14,14,37,15.30
2008,06,14,14,38,15.20
2008,06,14,14,39,15.30
2008,06,14,14,40,15.30
2008,06,14,14,41,15.40
2008,06,14,14,42,15.40
2008,06,14,14,43,15.40
2008,06,14,14,44,15.40
2008,06,14,14,45,15.40
2008,06,14,14,46,15.50
2008,06,14,14,47,15.60
2008,06,14,14,48,15.60
2008,06,14,14,49,15.70
2008,06,14,14,50,15.80
2008,06,14,14,51,15.80
2008,06,14,14,52,15.90
2008,06,14,14,53,16.00
2008,06,14,14,54,16.00
2008,06,14,14,55,15.90
2008,06,14,14,56,15.90
2008,06,14,14,57,15.90
2008,06,14,14,58,15.80
2008,06,14,14,59,15.70
2008,06,14,15,00,15.70
2008,06,14,15,01,15.70
2008,06,14,15,02,15.70
2008,06,14,15,03,15.80
2008,06,14,15,04,15.80
2008,06,14,15,05,15.90
2008,06,14,15,06,15.90
2008,06,14,15,07,16.00
2008,06,14,15,08,16.00
2008,06,14,15,09,16.00
2008,06,14,15,10,16.00
2008,06,14,15,11,16.10
2008,06,14,15,12,16.10
2008,06,14,15,13,16.10
2008,06,14,15,14,16.10
2008,06,14,15,15,16.00
2008,06,14,15,16,16.00
2008,06,14,15,17,16.00
2008,06,14,15,18,16.00
2008,06,14,15,19,16.10
2008,06,14,15,20,16.20
2008,06,14,15,21,16.30
2008,06,14,15,22,16.30
2008,06,14,15,23,16.40
2008,06,14,15,24,16.40
2008,06,14,15,25,16.40
2008,06,14,15,26,16.30
2008,06,14,15,27,16.30
2008,06,14,15,28,16.30
2008,06,14,15,29,16.30
2008,06,14,15,30,16.30
2008,06,14,15,31,16.40
2008,06,14,15,32,16.50
2008,06,14,15,33,16.50
2008,06,14,15,34,16.60
2008,06,14,15,35,16.60
2008,06,14,15,36,16.60
2008,06,14,15,37,16.60
2008,06,14,15,38,16.50
2008,06,14,15,39,16.50
2008,06,14,15,40,16.60
2008,06,14,15,41,16.70
2008,06,14,15,42,16.90
2008,06,14,15,43,17.00
2008,06,14,15,44,17.10
2008,06,14,15,45,17.20
2008,06,14,15,46,17.30
2008,06,14,15,47,17.40
2008,06,14,15,48,17.40
2008,06,14,15,49,17.40
2008,06,14,15,50,17.40
2008,06,14,15,51,17.30
2008,06,14,15,52,17.20
2008,06,14,15,53,17.10
2008,06,14,15,54,17.10
2008,06,14,15,55,17.10
2008,06,14,15,56,17.00
2008,06,14,15,57,17.10
2008,06,14,15,58,17.20
2008,06,14,15,59,17.20
2008,06,14,16,00,17.30
2008,06,14,16,01,17.20
2008,06,14,16,02,17.30
2008,06,14,16,03,17.20
2008,06,14,16,04,17.20
2008,06,14,16,05,17.20
2008,06,14,16,06,17.20
2008,06,14,16,07,17.30
2008,06,14,16,08,17.30
2008,06,14,16,09,17.30
2008,06,14,16,10,17.20
2008,06,14,16,11,17.20
2008,06,14,16,12,17.20
2008,06,14,16,13,17.20
2008,06,14,16,14,17.10
2008,06,14,16,15,17.10
2008,06,14,16,16,17.00
2008,06,14,16,17,17.00
2008,06,14,16,18,17.00
2008,06,14,16,19,17.00
2008,06,14,16,20,17.00
2008,06,14,16,21,17.00
2008,06,14,16,22,17.00
2008,06,14,16,23,17.00
2008,06,14,16,24,17.00
2008,06,14,16,25,16.90
2008,06,14,16,26,16.90
2008,06,14,16,27,16.80
2008,06,14,16,28,16.80
2008,06,14,16,29,16.80
2008,06,14,16,30,16.90
2008,06,14,16,31,16.90
2008,06,14,16,32,17.00
2008,06,14,16,33,17.10
2008,06,14,16,34,17.10
2008,06,14,16,35,17.10
2008,06,14,16,36,17.20
2008,06,14,16,37,17.30
2008,06,14,16,38,17.30
2008,06,14,16,39,17.20
2008,06,14,16,40,17.20
2008,06,14,16,41,17.20
2008,06,14,16,42,17.20
2008,06,14,16,43,17.20
2008,06,14,16,44,17.20
2008,06,14,16,45,17.30
2008,06,14,16,46,17.30
2008,06,14,16,47,17.30
2008,06,14,16,48,17.40
2008,06,14,16,49,17.40
2008,06,14,16,50,17.40
2008,06,14,16,51,17.50
2008,06,14,16,52,17.50
2008,06,14,16,53,17.60
2008,06,14,16,54,17.60
2008,06,14,16,55,17.60
2008,06,14,16,56,17.60
2008,06,14,16,57,17.60
2008,06,14,16,58,17.60
2008,06,14,16,59,17.60
2008,06,14,17,00,17.60
2008,06,14,17,01,17.60
2008,06,14,17,02,17.60
2008,06,14,17,03,17.60
2008,06,14,17,04,17.60
2008,06,14,17,05,17.60
2008,06,14,17,06,17.60
2008,06,14,17,07,17.60
2008,06,14,17,08,17.60
2008,06,14,17,09,17.60
2008,06,14,17,10,17.60
2008,06,14,17,11,17.60
2008,06,14,17,12,17.50
2008,06,14,17,13,17.50
2008,06,14,17,14,17.40
2008,06,14,17,15,17.40
2008,06,14,17,16,17.30
2008,06,14,17,17,17.30
2008,06,14,17,18,17.20
2008,06,14,17,19,17.20